カタログに戻る

SHIYAN 31

運用中科学PO
NORAD 65945·PAYLOAD·🇨🇳 China
この衛星名は、まだ公式ソースで確認されていません。

打ち上げ Oct 13, 2025 から Jiuquan Satellite Launch Center

Loading…

次のパス (今後24時間)

TLE

最新Source: Space-Track

元期: Sep 14, 2026, 13:45 UTC

1 65945U 25227A   26257.57355567  .00005541  00000-0  22999-3 0  9991
2 65945  80.0059  15.5645 0009722 249.7554 110.2630 15.23681417 51169

AllMySatでSHIYAN 31をリアルタイム追跡

Download on the App Store